Group_ship,Cruise,JD_GMT,Date_DDMMYYYY,TIME_HH:MM:SS,Lat_dec_degree,Long_dec_degree,xCO2eq_ppm,xCO2a_ppm,Pres_Equi_hPa,Pres_sealevel_hPa,EqTemp_C,SST(TSG)_C,Sal(TSG)_Permil,Water_flow_l/min,Gasflow_IR_ml/min,Temp_IR_C,Pres_IR_hPa,Ship_heading_true_degree,Ship_speed_knot,Wind_dir_rel_degree,Wind_speed_rel_m/s,fCO2W@SST_uatm,Qcflag_water,fCO2a_uatm,Qcflag_air,dfCO2_uatm,Fluoro_ug/l,Wind_speed_true_m/s,Wind_dir_true_degree,Air_temp_C,Oxygen
AOML_Explorer,Ex0739N,267.015,24092007,0:21:40,40.169,-73.507,387.42,-9.00,1020.55,1017.80,21.49,21.48,31.663,1.112,96.003,30.960,1020.547,139.100,19.500,15.000,4.118,379.12,2,-9.00,9,-9.00,0.15,6.07,309.16,22.52,267.13
AOML_Explorer,Ex0739N,267.017,24092007,0:24:13,40.159,-73.495,388.01,-9.00,1020.54,1017.90,21.50,21.47,31.664,1.108,96.171,30.967,1020.538,138.800,19.400,8.000,5.147,379.38,2,-9.00,9,-9.00,0.15,4.91,310.83,22.43,265.73
AOML_Explorer,Ex0739N,267.019,24092007,0:26:46,40.149,-73.484,388.22,-9.00,1020.59,1017.90,21.50,21.35,31.686,1.108,96.328,30.972,1020.590,139.000,19.500,8.000,5.147,377.77,2,-9.00,9,-9.00,0.16,4.88,311.05,22.39,265.08
AOML_Explorer,Ex0739N,267.020,24092007,0:29:19,40.138,-73.472,387.98,-9.00,1020.37,1017.90,21.48,21.16,31.628,1.075,96.064,30.978,1020.370,139.000,19.400,3.000,5.147,374.88,2,-9.00,9,-9.00,0.18,4.81,316.15,22.3,263.95
AOML_Explorer,Ex0739N,267.022,24092007,0:31:52,40.128,-73.460,389.47,-9.00,1020.33,1017.80,21.37,21.21,31.593,1.116,96.897,30.988,1020.326,138.600,19.400,358.000,4.118,378.73,2,-9.00,9,-9.00,0.20,5.83,320.40,22.35,262.94
AOML_Explorer,Ex0739N,267.024,24092007,0:34:25,40.118,-73.449,391.34,-9.00,1020.40,1018.00,21.26,21.23,31.568,1.118,96.129,30.988,1020.396,138.900,19.400,359.000,5.147,382.84,2,-9.00,9,-9.00,0.19,4.79,320.31,22.29,262.96
AOML_Explorer,Ex0739N,267.026,24092007,0:36:58,40.107,-73.437,389.96,-9.00,1020.50,1018.10,21.27,21.20,31.603,1.102,96.201,30.991,1020.496,138.500,19.300,2.000,6.691,380.86,2,-9.00,9,-9.00,0.18,3.25,314.07,22.2,263.85
AOML_Explorer,Ex0739N,267.027,24092007,0:39:31,40.097,-73.425,386.99,-9.00,1020.45,1018.00,21.30,21.19,31.541,1.108,96.293,30.997,1020.453,138.600,19.400,3.000,6.176,377.30,2,-9.00,9,-9.00,0.17,3.79,313.33,22.19,262.84
AOML_Explorer,Ex0739N,267.029,24092007,0:42:04,40.087,-73.413,384.89,-9.00,1020.43,1017.90,21.27,21.20,31.539,1.085,96.090,31.001,1020.430,138.600,19.400,351.000,4.118,375.81,2,-9.00,9,-9.00,0.17,5.93,324.90,22.32,263.29
AOML_Explorer,Ex0739N,267.031,24092007,0:44:37,40.076,-73.402,383.88,-9.00,1020.46,1017.90,21.26,21.24,31.547,1.085,96.373,31.007,1020.458,138.600,19.500,345.000,4.632,375.56,2,-9.00,9,-9.00,0.17,5.63,330.95,22.45,263.33
AOML_Explorer,Ex0739N,267.033,24092007,0:47:10,40.066,-73.390,382.95,-9.00,1020.45,1017.90,21.27,21.32,31.574,1.104,96.384,31.011,1020.449,138.800,19.500,338.000,4.632,375.85,2,-9.00,9,-9.00,0.18,5.98,335.81,22.55,262.97
AOML_Explorer,Ex0739N,267.035,24092007,0:49:43,40.056,-73.378,382.09,-9.00,1020.47,1018.00,21.31,21.31,31.574,1.109,93.427,31.017,1020.474,138.800,19.500,347.000,4.118,374.16,2,-9.00,9,-9.00,0.17,6.08,327.90,22.56,263.15
AOML_Explorer,Ex0739N,267.036,24092007,0:52:16,40.045,-73.366,380.90,-9.00,1020.42,1017.90,21.36,21.26,31.592,1.108,96.083,31.021,1020.425,139.100,19.600,338.000,3.603,371.34,2,-9.00,9,-9.00,0.17,6.84,330.80,22.47,264.54
AOML_Explorer,Ex0739N,267.038,24092007,0:54:49,40.035,-73.355,379.29,-9.00,1020.47,1018.10,21.36,21.22,31.592,1.093,96.261,31.027,1020.475,139.100,19.600,357.000,6.176,369.30,2,-9.00,9,-9.00,0.15,3.89,324.85,22.07,263.15
AOML_Explorer,Ex0739N,267.040,24092007,0:57:22,40.024,-73.343,379.58,-9.00,1020.58,1018.10,21.31,21.16,31.615,1.133,96.356,31.034,1020.576,139.300,19.600,346.000,4.632,369.38,2,-9.00,9,-9.00,0.15,5.68,331.00,22.11,262.50
AOML_Explorer,Ex0739N,267.042,24092007,0:59:55,40.014,-73.331,380.95,-9.00,1020.52,1018.00,21.28,21.14,31.590,1.155,96.517,31.036,1020.517,139.100,19.700,345.000,4.118,370.95,2,-9.00,9,-9.00,0.14,6.21,329.50,22.28,262.68
AOML_Explorer,Ex0739N,267.057,24092007,1:21:40,39.947,-73.245,383.86,-9.00,1020.39,1017.80,21.33,21.23,31.550,1.179,96.126,31.126,1020.387,0.000,0.000,312.000,5.662,374.42,2,-9.00,9,-9.00,0.19,7.70,346.09,22.05,261.89
AOML_Explorer,Ex0739N,267.058,24092007,1:24:13,39.947,-73.245,384.32,-9.00,1020.31,1017.70,21.33,21.16,31.582,1.147,96.186,31.127,1020.309,0.000,0.000,303.000,6.176,373.75,2,-9.00,9,-9.00,0.16,8.61,350.10,22.12,262.62
AOML_Explorer,Ex0739N,267.060,24092007,1:26:46,39.947,-73.245,383.58,-9.00,1020.29,1017.60,21.31,20.84,31.545,1.140,96.243,31.126,1020.288,0.000,0.000,290.000,6.691,368.41,2,-9.00,9,-9.00,0.15,10.13,351.23,22.23,261.30
AOML_Explorer,Ex0739N,267.062,24092007,1:29:19,39.947,-73.245,384.07,-9.00,1020.25,1017.60,21.20,20.76,31.530,1.135,96.242,31.125,1020.251,0.000,0.000,293.000,6.691,369.38,2,-9.00,9,-9.00,0.16,9.75,352.16,22.14,260.96
AOML_Explorer,Ex0739N,267.064,24092007,1:31:52,39.892,-73.168,388.73,-9.00,1020.32,1017.90,20.97,20.81,31.477,1.180,96.215,31.126,1020.319,132.800,19.500,322.000,5.662,378.35,2,-9.00,9,-9.00,0.16,6.60,345.12,21.9,262.37
AOML_Explorer,Ex0739N,267.066,24092007,1:34:25,39.883,-73.154,394.84,-9.00,1020.44,1018.00,20.90,20.87,31.490,1.100,96.219,31.128,1020.437,132.700,19.400,318.000,6.176,386.55,2,-9.00,9,-9.00,0.15,6.82,350.55,21.85,262.57
AOML_Explorer,Ex0739N,267.067,24092007,1:36:58,39.874,-73.141,397.33,-9.00,1020.45,1017.80,20.92,20.86,31.516,1.089,95.903,31.126,1020.453,132.700,19.400,319.000,7.206,388.42,2,-9.00,9,-9.00,0.16,6.63,359.06,22.03,262.29
AOML_Explorer,Ex0739N,267.069,24092007,1:39:31,39.864,-73.128,397.28,-9.00,1020.32,1017.60,20.96,20.88,31.525,1.104,96.255,31.124,1020.318,132.600,19.500,297.000,6.691,387.95,2,-9.00,9,-9.00,0.14,9.28,353.03,22.23,261.42
AOML_Explorer,Ex0739N,267.071,24092007,1:42:04,39.855,-73.115,397.25,-9.00,1020.41,1017.60,20.95,20.89,31.583,1.126,96.138,31.122,1020.411,132.600,19.600,296.000,6.176,388.18,2,-9.00,9,-9.00,0.14,9.28,349.65,22.19,260.71
AOML_Explorer,Ex0739N,267.073,24092007,1:44:37,39.846,-73.102,397.20,-9.00,1020.50,1017.90,20.97,20.84,31.639,1.109,96.285,31.121,1020.503,132.400,19.500,315.000,7.206,387.03,2,-9.00,9,-9.00,0.14,7.19,358.55,22.04,259.63
AOML_Explorer,Ex0739N,267.074,24092007,1:47:10,39.836,-73.089,397.09,-9.00,1020.52,1018.00,20.97,20.91,31.717,1.149,96.271,31.120,1020.524,132.300,19.500,317.000,6.691,388.00,2,-9.00,9,-9.00,0.13,6.95,354.13,21.75,258.74
AOML_Explorer,Ex0739N,267.076,24092007,1:49:43,39.827,-73.075,398.61,-9.00,1020.34,1017.70,20.94,21.04,31.836,1.150,96.261,31.118,1020.343,132.300,19.700,305.000,6.176,392.11,2,-9.00,9,-9.00,0.12,8.36,349.99,21.72,257.64
AOML_Explorer,Ex0739N,267.078,24092007,1:52:16,39.818,-73.062,400.38,-9.00,1020.36,1017.70,20.99,21.16,31.982,1.106,96.139,31.118,1020.356,132.000,19.700,302.000,6.691,394.94,2,-9.00,9,-9.00,0.11,8.76,353.10,21.76,257.50
AOML_Explorer,Ex0739N,267.080,24092007,1:54:49,39.808,-73.049,400.83,-9.00,1020.42,1017.90,21.10,21.25,32.138,1.167,96.208,31.118,1020.422,131.800,19.600,327.000,7.206,395.04,2,-9.00,9,-9.00,0.09,5.72,356.58,21.64,256.05
AOML_Explorer,Ex0739N,267.082,24092007,1:57:22,39.799,-73.035,399.32,-9.00,1020.37,1017.90,21.21,21.24,32.400,1.172,96.229,31.121,1020.374,134.600,19.700,325.000,6.176,391.66,2,-9.00,9,-9.00,0.08,6.12,349.89,21.64,254.93
AOML_Explorer,Ex0739N,267.083,24092007,1:59:55,39.789,-73.023,396.96,-9.00,1020.46,1017.90,21.29,21.24,32.516,1.173,96.169,31.118,1020.461,135.400,19.800,321.000,6.691,388.04,2,-9.00,9,-9.00,0.07,6.40,356.21,21.69,254.62
AOML_Explorer,Ex0739N,267.098,24092007,2:21:40,39.709,-72.910,389.61,-9.00,1020.41,1017.70,21.42,21.43,32.816,1.145,95.798,31.176,1020.412,127.000,19.400,313.000,7.206,381.55,2,-9.00,9,-9.00,0.06,7.49,353.08,21.86,253.09
AOML_Explorer,Ex0739N,267.100,24092007,2:24:13,39.701,-72.896,389.37,-9.00,1020.39,1017.50,21.45,21.26,32.719,1.171,96.012,31.176,1020.388,126.900,19.400,307.000,7.206,378.39,2,-9.00,9,-9.00,0.07,8.25,352.35,21.94,252.99
AOML_Explorer,Ex0739N,267.102,24092007,2:26:46,39.692,-72.881,389.11,-9.00,1020.39,1017.70,21.45,21.27,32.602,1.140,95.920,31.176,1020.388,127.300,19.400,306.000,8.750,378.20,2,-9.00,9,-9.00,0.07,8.80,2.39,21.99,253.03
AOML_Explorer,Ex0739N,267.104,24092007,2:29:19,39.684,-72.868,389.06,-9.00,1020.39,1017.60,21.34,21.17,32.538,1.176,97.353,31.178,1020.387,130.900,19.400,307.000,7.721,378.41,2,-9.00,9,-9.00,0.08,8.27,0.15,21.96,253.88
AOML_Explorer,Ex0739N,267.105,24092007,2:31:52,39.674,-72.855,389.50,-9.00,1020.37,1017.50,21.31,21.16,32.594,1.173,96.054,31.178,1020.366,139.100,19.600,309.000,9.265,379.05,2,-9.00,9,-9.00,0.07,8.43,18.56,21.92,253.67
AOML_Explorer,Ex0739N,267.107,24092007,2:34:25,39.663,-72.843,391.84,-9.00,1020.30,1017.60,21.25,21.16,32.647,1.160,94.193,31.176,1020.303,140.800,19.700,310.000,7.721,382.31,2,-9.00,9,-9.00,0.07,7.99,9.34,21.84,253.71
AOML_Explorer,Ex0739N,267.109,24092007,2:36:58,39.652,-72.832,394.15,-9.00,1020.33,1017.50,21.23,21.13,32.646,1.188,96.076,31.176,1020.329,139.900,19.800,308.000,8.750,384.36,2,-9.00,9,-9.00,0.08,8.47,14.84,21.83,253.74
AOML_Explorer,Ex0739N,267.111,24092007,2:39:31,39.641,-72.820,394.76,-9.00,1020.24,1017.40,21.23,21.15,32.613,1.203,96.075,31.174,1020.243,139.500,19.700,299.000,9.265,385.33,2,-9.00,9,-9.00,0.08,9.89,14.53,21.83,253.74
AOML_Explorer,Ex0739N,267.113,24092007,2:42:04,39.631,-72.808,394.88,-9.00,1020.24,1017.50,21.21,21.21,32.515,1.227,96.054,31.173,1020.244,139.500,19.700,310.000,8.235,386.66,2,-9.00,9,-9.00,0.07,7.93,11.95,21.76,253.90
AOML_Explorer,Ex0739N,267.114,24092007,2:44:37,39.620,-72.797,394.93,-9.00,1020.24,1017.50,21.22,21.19,32.563,1.375,96.162,31.169,1020.239,139.700,19.500,306.000,7.721,386.28,2,-9.00,9,-9.00,0.08,8.28,8.33,21.68,253.95
AOML_Explorer,Ex0739N,267.116,24092007,2:47:10,39.610,-72.785,395.51,-9.00,1020.29,1017.30,21.26,21.16,32.699,1.371,96.123,31.166,1020.288,140.100,19.500,306.000,8.235,385.65,2,-9.00,9,-9.00,0.07,8.45,12.05,21.64,253.01
AOML_Explorer,Ex0739N,267.118,24092007,2:49:43,39.599,-72.774,396.03,-9.00,1020.19,1017.40,21.26,21.31,32.601,1.373,96.143,31.163,1020.193,140.200,19.400,311.000,8.750,388.57,2,-9.00,9,-9.00,0.07,7.85,17.45,21.65,253.33
AOML_Explorer,Ex0739N,267.120,24092007,2:52:16,39.588,-72.762,395.89,-9.00,1020.16,1017.40,21.25,21.33,32.483,1.370,95.918,31.160,1020.159,140.100,19.400,303.000,8.750,388.92,2,-9.00,9,-9.00,0.07,9.03,14.67,21.65,253.62
AOML_Explorer,Ex0739N,267.121,24092007,2:54:49,39.578,-72.750,395.43,-9.00,1020.13,1017.20,21.34,21.28,32.401,1.337,96.022,31.159,1020.133,136.400,19.400,306.000,9.265,386.22,2,-9.00,9,-9.00,0.07,8.90,14.84,21.68,253.88
AOML_Explorer,Ex0739N,267.123,24092007,2:57:22,39.568,-72.738,396.32,-9.00,1020.11,1017.20,21.37,21.22,32.437,1.351,96.074,31.160,1020.109,137.200,19.500,302.000,9.779,385.54,2,-9.00,9,-9.00,0.07,9.80,16.14,21.71,254.12
AOML_Explorer,Ex0739N,267.125,24092007,2:59:55,39.558,-72.726,397.97,-9.00,1020.04,1017.00,21.34,21.20,32.500,1.330,96.137,31.162,1020.036,137.300,19.500,294.000,9.265,387.24,2,-9.00,9,-9.00,0.07,10.76,10.02,21.68,253.52
AOML_Explorer,Ex0739N,267.140,24092007,3:21:40,39.472,-72.619,393.14,-9.00,1020.16,1017.40,21.17,21.18,32.785,1.385,95.792,31.213,1020.164,135.200,19.500,304.000,8.235,385.04,2,-9.00,9,-9.00,0.07,9.08,5.79,21.49,254.40
AOML_Explorer,Ex0739N,267.142,24092007,3:24:13,39.462,-72.606,392.19,-9.00,1020.01,1017.20,21.16,21.21,32.923,1.400,96.005,31.216,1020.009,135.600,19.700,297.000,7.206,384.78,2,-9.00,9,-9.00,0.07,9.69,358.15,21.45,255.10
AOML_Explorer,Ex0739N,267.144,24092007,3:26:46,39.453,-72.593,392.92,-9.00,1020.21,1017.30,21.23,21.30,33.056,1.371,96.067,31.216,1020.213,134.600,19.800,303.000,8.750,385.74,2,-9.00,9,-9.00,0.07,9.52,7.28,21.46,254.84
AOML_Explorer,Ex0739N,267.145,24092007,3:29:19,39.443,-72.580,392.98,-9.00,1020.26,1017.40,21.27,21.41,33.294,1.337,95.925,31.216,1020.256,134.500,19.700,304.000,8.750,387.06,2,-9.00,9,-9.00,0.06,9.32,7.89,21.46,254.70
AOML_Explorer,Ex0739N,267.147,24092007,3:31:52,39.433,-72.568,392.24,-9.00,1020.06,1017.20,21.35,21.59,33.630,1.376,95.795,31.215,1020.055,134.900,19.600,303.000,9.265,387.74,2,-9.00,9,-9.00,0.07,9.72,10.83,21.44,254.19
AOML_Explorer,Ex0739N,267.149,24092007,3:34:25,39.423,-72.555,390.07,-9.00,1020.31,1017.20,21.44,21.74,34.096,1.355,95.639,31.210,1020.309,133.900,19.700,302.000,10.294,386.55,2,-9.00,9,-9.00,0.06,10.25,14.81,21.53,252.84
AOML_Explorer,Ex0739N,267.151,24092007,3:36:58,39.413,-72.542,385.61,-9.00,1020.14,1017.20,21.59,21.69,34.103,1.360,96.320,31.204,1020.141,134.300,19.600,308.000,9.265,378.98,2,-9.00,9,-9.00,0.06,8.83,12.47,21.65,252.52
AOML_Explorer,Ex0739N,267.152,24092007,3:39:31,39.404,-72.529,379.16,-9.00,1020.11,1017.00,21.70,21.96,34.316,1.355,95.708,31.199,1020.114,133.700,19.600,299.000,9.265,374.93,2,-9.00,9,-9.00,0.06,10.16,8.29,21.69,253.28
AOML_Explorer,Ex0739N,267.154,24092007,3:42:04,39.394,-72.516,374.43,-9.00,1020.20,1017.10,21.75,22.12,34.434,1.374,95.789,31.200,1020.202,133.900,19.600,298.000,9.265,371.84,2,-9.00,9,-9.00,0.07,10.30,8.04,21.75,253.33
AOML_Explorer,Ex0739N,267.156,24092007,3:44:37,39.384,-72.503,370.26,-9.00,1020.03,1017.00,21.91,22.16,34.485,1.385,95.937,31.195,1020.028,133.500,19.600,299.000,9.779,365.83,2,-9.00,9,-9.00,0.06,10.38,10.79,21.74,253.61
AOML_Explorer,Ex0739N,267.158,24092007,3:47:10,39.375,-72.490,366.72,-9.00,1019.96,1016.90,22.05,22.19,34.505,1.365,95.966,31.195,1019.961,134.400,19.800,295.000,9.265,360.59,2,-9.00,9,-9.00,0.06,10.83,6.92,21.74,252.70
AOML_Explorer,Ex0739N,267.160,24092007,3:49:43,39.365,-72.477,364.31,-9.00,1020.14,1016.90,22.11,22.16,34.520,1.346,95.786,31.192,1020.139,134.000,19.800,299.000,9.779,357.02,2,-9.00,9,-9.00,0.07,10.53,10.31,21.79,251.99
AOML_Explorer,Ex0739N,267.161,24092007,3:52:16,39.355,-72.464,361.86,-9.00,1020.00,1016.90,22.13,22.60,34.509,1.347,95.944,31.189,1020.005,134.500,19.700,295.000,10.294,360.59,2,-9.00,9,-9.00,0.07,11.37,11.39,21.83,252.71
AOML_Explorer,Ex0739N,267.182,24092007,4:21:40,39.246,-72.311,380.09,-9.00,1019.97,1016.90,21.58,21.64,33.581,1.308,95.506,31.249,1019.966,132.400,19.900,302.000,10.294,372.81,2,-9.00,9,-9.00,0.08,10.16,13.17,21.6,250.83
AOML_Explorer,Ex0739N,267.183,24092007,4:24:13,39.236,-72.298,381.61,-9.00,1020.02,1016.90,21.62,21.63,33.656,1.286,95.178,31.253,1020.020,132.500,20.200,304.000,10.294,373.37,2,-9.00,9,-9.00,0.09,10.03,13.42,21.62,250.43
AOML_Explorer,Ex0739N,267.185,24092007,4:26:46,39.226,-72.285,382.15,-9.00,1019.96,1016.90,21.66,21.63,33.686,1.363,95.213,31.253,1019.958,134.900,20.200,301.000,10.809,373.49,2,-9.00,9,-9.00,0.08,10.74,16.55,21.65,250.32
AOML_Explorer,Ex0739N,267.187,24092007,4:29:19,39.216,-72.272,381.46,-9.00,1020.04,1016.90,21.65,21.56,33.711,1.391,95.472,31.251,1020.045,134.800,20.200,299.000,9.779,371.94,2,-9.00,9,-9.00,0.09,10.57,10.71,21.65,250.71
AOML_Explorer,Ex0739N,267.189,24092007,4:31:52,39.206,-72.259,380.52,-9.00,1020.09,1016.90,21.65,21.51,33.707,1.389,95.493,31.249,1020.087,134.700,20.200,299.000,9.779,370.22,2,-9.00,9,-9.00,0.08,10.54,10.66,21.69,250.92
AOML_Explorer,Ex0739N,267.191,24092007,4:34:25,39.196,-72.246,379.67,-9.00,1019.96,1016.80,21.60,21.52,33.661,1.387,95.302,31.249,1019.963,134.400,20.300,298.000,9.779,370.30,2,-9.00,9,-9.00,0.08,10.66,9.82,21.68,251.06
AOML_Explorer,Ex0739N,267.192,24092007,4:36:58,39.186,-72.233,379.08,-9.00,1019.95,1016.90,21.55,21.62,33.689,1.394,95.351,31.242,1019.946,134.400,20.300,302.000,10.294,371.91,2,-9.00,9,-9.00,0.08,10.26,14.40,21.66,250.64
AOML_Explorer,Ex0739N,267.194,24092007,4:39:31,39.176,-72.220,378.96,-9.00,1019.99,1016.80,21.56,21.71,33.682,1.404,95.094,31.241,1019.990,134.400,20.400,303.000,9.779,372.95,2,-9.00,9,-9.00,0.08,9.96,11.88,21.7,250.61
AOML_Explorer,Ex0739N,267.196,24092007,4:42:04,39.166,-72.206,378.88,-9.00,1019.97,1016.90,21.63,21.80,33.689,1.386,95.670,31.237,1019.971,134.500,20.300,304.000,10.809,373.23,2,-9.00,9,-9.00,0.08,10.21,17.64,21.71,250.10
AOML_Explorer,Ex0739N,267.198,24092007,4:44:37,39.156,-72.193,378.47,-9.00,1019.91,1016.90,21.73,22.10,33.647,1.382,95.770,31.238,1019.908,134.400,20.300,303.000,10.294,375.86,2,-9.00,9,-9.00,0.07,10.16,14.52,21.86,249.58
AOML_Explorer,Ex0739N,267.199,24092007,4:47:10,39.145,-72.180,378.63,-9.00,1019.87,1016.70,21.82,22.17,33.666,1.396,95.479,31.235,1019.874,133.800,20.300,296.000,10.294,375.60,2,-9.00,9,-9.00,0.06,11.18,10.95,21.88,249.57
AOML_Explorer,Ex0739N,267.201,24092007,4:49:43,39.135,-72.167,378.37,-9.00,1019.95,1016.70,22.02,22.48,33.910,1.351,95.333,31.231,1019.946,133.800,20.300,299.000,11.323,376.86,2,-9.00,9,-9.00,0.05,11.28,16.87,21.88,248.03
AOML_Explorer,Ex0739N,267.203,24092007,4:52:16,39.125,-72.153,378.46,-9.00,1019.96,1016.70,22.14,22.48,34.105,1.338,95.341,31.225,1019.956,133.800,20.400,299.000,10.294,375.09,2,-9.00,9,-9.00,0.06,10.70,12.32,21.86,246.41
AOML_Explorer,Ex0739N,267.205,24092007,4:54:49,39.115,-72.140,377.04,-9.00,1020.00,1016.70,22.36,22.62,34.211,1.347,96.020,31.221,1020.001,133.700,20.400,304.000,11.323,372.39,2,-9.00,9,-9.00,0.05,10.41,19.56,21.79,245.63
AOML_Explorer,Ex0739N,267.207,24092007,4:57:22,39.105,-72.127,375.57,-9.00,1019.70,1016.70,22.41,22.56,34.816,1.297,95.698,31.222,1019.700,134.100,20.300,298.000,10.294,369.09,2,-9.00,9,-9.00,0.06,10.76,12.37,21.77,244.09
AOML_Explorer,Ex0739N,267.208,24092007,4:59:55,39.096,-72.114,374.16,-9.00,1019.83,1016.80,22.62,22.49,34.376,1.434,95.395,31.217,1019.834,134.600,20.200,301.000,11.323,363.53,2,-9.00,9,-9.00,0.05,10.85,19.05,21.74,244.74
AOML_Explorer,Ex0739N,267.223,24092007,5:21:40,39.008,-72.004,371.25,-9.00,1019.88,1016.70,22.22,22.08,33.857,1.451,95.731,31.283,1019.877,135.400,20.500,301.000,11.323,360.74,2,-9.00,9,-9.00,0.06,11.02,18.89,21.95,246.13
AOML_Explorer,Ex0739N,267.225,24092007,5:24:13,38.997,-71.991,372.52,-9.00,1019.87,1017.00,22.12,21.96,33.866,1.441,96.372,31.286,1019.867,136.700,20.500,304.000,10.809,361.79,2,-9.00,9,-9.00,0.06,10.25,19.25,21.98,246.13
AOML_Explorer,Ex0739N,267.227,24092007,5:26:46,38.987,-71.978,373.57,-9.00,1019.95,1017.20,22.07,21.85,33.817,1.428,95.977,31.290,1019.946,137.000,20.600,302.000,10.809,362.02,2,-9.00,9,-9.00,0.06,10.67,18.08,21.97,246.43
AOML_Explorer,Ex0739N,267.229,24092007,5:29:19,38.976,-71.965,373.86,-9.00,1019.87,1017.10,21.98,21.61,33.767,1.440,95.712,31.291,1019.874,137.100,20.700,308.000,10.294,360.17,2,-9.00,9,-9.00,0.06,9.49,18.33,21.96,247.31
AOML_Explorer,Ex0739N,267.230,24092007,5:31:52,38.965,-71.952,374.06,-9.00,1019.94,1017.10,21.87,21.66,33.688,1.419,95.924,31.291,1019.942,137.000,20.700,304.000,10.809,362.73,2,-9.00,9,-9.00,0.07,10.35,19.04,21.98,247.62
AOML_Explorer,Ex0739N,267.232,24092007,5:34:25,38.955,-71.940,374.73,-9.00,1019.93,1017.10,21.70,21.88,33.759,1.423,95.769,31.291,1019.925,137.700,20.700,305.000,10.809,369.27,2,-9.00,9,-9.00,0.06,10.28,19.80,22.04,247.20
AOML_Explorer,Ex0739N,267.234,24092007,5:36:58,38.944,-71.927,375.73,-9.00,1019.93,1016.90,21.70,22.52,34.111,1.414,95.633,31.289,1019.929,137.600,20.800,304.000,11.323,379.89,2,-9.00,9,-9.00,0.06,10.79,21.20,22.19,246.63
AOML_Explorer,Ex0739N,267.236,24092007,5:39:31,38.933,-71.914,374.88,-9.00,1019.91,1017.00,21.92,22.93,34.534,1.411,95.935,31.291,1019.915,138.000,20.700,302.000,11.323,382.00,2,-9.00,9,-9.00,0.05,11.10,20.67,22.24,245.58
AOML_Explorer,Ex0739N,267.238,24092007,5:42:04,38.922,-71.902,372.05,-9.00,1019.99,1017.20,22.50,23.06,34.429,1.427,96.154,31.287,1019.994,137.500,20.500,308.000,9.779,371.95,2,-9.00,9,-9.00,0.05,9.31,16.29,22.13,245.83
AOML_Explorer,Ex0739N,267.239,24092007,5:44:37,38.912,-71.889,369.19,-9.00,1020.09,1017.40,22.72,22.50,34.295,1.424,96.211,31.288,1020.088,137.900,20.300,324.000,9.265,357.43,2,-9.00,9,-9.00,0.05,6.53,19.29,21.97,246.24
AOML_Explorer,Ex0739N,267.241,24092007,5:47:10,38.901,-71.877,368.34,-9.00,1020.02,1017.40,22.72,22.58,34.246,1.424,95.839,31.286,1020.016,138.000,20.300,311.000,9.265,357.63,2,-9.00,9,-9.00,0.05,8.62,15.19,21.87,246.15
AOML_Explorer,Ex0739N,267.243,24092007,5:49:43,38.890,-71.865,370.12,-9.00,1020.00,1017.40,22.50,23.09,34.350,1.407,96.028,31.286,1020.004,136.800,20.200,316.000,9.265,370.39,2,-9.00,9,-9.00,0.05,7.85,15.62,21.86,245.38
AOML_Explorer,Ex0739N,267.245,24092007,5:52:16,38.880,-71.852,371.00,-9.00,1020.01,1017.50,22.55,22.96,34.452,1.407,96.051,31.290,1020.012,137.500,20.500,318.000,9.779,368.54,2,-9.00,9,-9.00,0.05,7.70,20.22,21.86,245.07
AOML_Explorer,Ex0739N,267.246,24092007,5:54:49,38.869,-71.839,370.56,-9.00,1020.05,1017.50,22.89,22.82,34.376,1.396,96.007,31.293,1020.053,136.800,20.600,316.000,9.779,360.80,2,-9.00,9,-9.00,0.05,8.02,18.62,21.86,245.39
AOML_Explorer,Ex0739N,267.248,24092007,5:57:22,38.859,-71.827,370.22,-9.00,1019.98,1017.50,22.86,22.99,34.295,1.396,95.378,31.296,1019.980,136.100,20.600,315.000,8.750,363.38,2,-9.00,9,-9.00,0.05,7.84,10.64,21.92,245.09
AOML_Explorer,Ex0739N,267.250,24092007,5:59:55,38.848,-71.814,370.73,-9.00,1020.01,1017.30,22.76,23.03,34.413,1.402,96.035,31.295,1020.012,136.400,20.500,319.000,9.265,366.02,2,-9.00,9,-9.00,0.05,7.26,15.92,21.96,243.92
AOML_Explorer,Ex0739N,267.265,24092007,6:21:40,38.759,-71.703,369.65,-9.00,1020.06,1017.40,22.67,23.41,34.651,1.426,95.822,31.376,1020.060,136.500,20.800,318.000,9.265,372.04,2,-9.00,9,-9.00,0.05,7.51,14.80,21.87,241.87
AOML_Explorer,Ex0739N,267.267,24092007,6:24:13,38.748,-71.690,370.57,-9.00,1020.04,1017.40,22.85,23.37,34.740,1.372,95.613,31.382,1020.044,136.400,20.600,315.000,8.235,369.57,2,-9.00,9,-9.00,0.05,7.74,7.04,21.86,240.45
AOML_Explorer,Ex0739N,267.269,24092007,6:26:46,38.738,-71.678,369.40,-9.00,1019.99,1017.50,23.18,23.37,34.758,1.386,95.741,31.385,1019.993,136.800,20.700,318.000,8.750,363.27,2,-9.00,9,-9.00,0.05,7.42,11.78,21.86,239.97
AOML_Explorer,Ex0739N,267.270,24092007,6:29:19,38.727,-71.665,368.21,-9.00,1020.02,1017.40,23.22,23.01,35.060,1.421,95.500,31.385,1020.021,137.400,20.700,320.000,8.750,356.28,2,-9.00,9,-9.00,0.05,7.13,12.50,21.91,239.24
AOML_Explorer,Ex0739N,267.272,24092007,6:31:52,38.716,-71.652,367.51,-9.00,1020.08,1017.40,23.24,22.94,34.577,1.378,95.783,31.388,1020.076,137.300,20.700,320.000,9.265,354.40,2,-9.00,9,-9.00,0.05,7.22,16.60,21.85,240.16
AOML_Explorer,Ex0739N,267.274,24092007,6:34:25,38.706,-71.640,366.88,-9.00,1020.02,1017.50,22.98,22.65,34.579,1.367,95.969,31.389,1020.019,137.600,20.500,321.000,9.265,353.47,2,-9.00,9,-9.00,0.05,7.03,17.54,21.84,241.74
AOML_Explorer,Ex0739N,267.276,24092007,6:36:58,38.695,-71.627,366.83,-9.00,1020.04,1017.60,22.89,22.56,34.458,1.413,96.027,31.390,1020.044,137.800,20.500,327.000,8.750,353.47,2,-9.00,9,-9.00,0.05,6.04,14.39,21.82,242.54
AOML_Explorer,Ex0739N,267.277,24092007,6:39:31,38.685,-71.615,366.65,-9.00,1020.03,1017.70,22.62,22.63,34.460,1.420,96.148,31.389,1020.033,137.900,20.500,329.000,8.235,358.27,2,-9.00,9,-9.00,0.05,5.81,9.32,21.84,243.41
AOML_Explorer,Ex0739N,267.279,24092007,6:42:04,38.674,-71.603,366.53,-9.00,1020.00,1017.50,22.57,22.60,34.392,1.362,95.936,31.391,1019.995,137.900,20.200,329.000,9.265,358.46,2,-9.00,9,-9.00,0.05,5.81,20.41,21.8,243.90
AOML_Explorer,Ex0739N,267.281,24092007,6:44:37,38.663,-71.590,365.89,-9.00,1019.87,1017.40,22.59,22.66,34.414,1.389,95.701,31.393,1019.866,138.100,20.300,319.000,9.265,358.45,2,-9.00,9,-9.00,0.05,7.39,18.24,21.91,244.06
AOML_Explorer,Ex0739N,267.283,24092007,6:47:10,38.653,-71.578,365.05,-9.00,1019.92,1017.50,22.56,22.93,34.554,1.394,95.974,31.391,1019.916,137.800,20.200,324.000,8.235,362.00,2,-9.00,9,-9.00,0.05,6.49,10.70,21.89,243.49
AOML_Explorer,Ex0739N,267.285,24092007,6:49:43,38.642,-71.566,363.65,-9.00,1019.96,1017.40,22.60,23.04,34.625,1.396,96.014,31.388,1019.956,138.200,20.200,319.000,8.750,361.57,2,-9.00,9,-9.00,0.05,7.34,14.41,21.93,243.33
AOML_Explorer,Ex0739N,267.286,24092007,6:52:16,38.632,-71.554,360.78,-9.00,1019.98,1017.40,22.83,22.50,34.344,1.377,95.697,31.392,1019.979,137.500,20.100,324.000,9.779,347.59,2,-9.00,9,-9.00,0.05,6.83,23.83,21.91,244.04